GW2696 Weather Reports


Display with metric or nautical units.
time (UTC)temp
F
wind
direction
speed
MPH
gust
MPH
rain 1hr
in
rain 24hr
in
rain mn
in
humidity
%
barometer
mb
20260503200238 70 158 5.0 11.0 0.00 0.00 0.00 24 1018.7
20260503195238 70 203 13.0 19.0 0.00 0.00 0.00 20 1018.7
20260503194218 69 203 9.0 12.0 0.00 0.00 0.00 26 1019.0
20260503193219 69 203 9.0 12.0 0.00 0.00 0.00 25 1019.2
20260503192218 68 203 9.0 12.0 0.00 0.00 0.00 27 1018.9
20260503191219 69 225 6.0 10.0 0.00 0.00 0.00 27 1019.5
20260503190218 71 203 12.0 17.0 0.00 0.00 0.00 24 1019.7
20260503185238 71 180 4.0 7.0 0.00 0.00 0.00 23 1020.0
20260503184218 71 90 4.0 6.0 0.00 0.00 0.00 24 1019.9
20260503183239 71 225 6.0 10.0 0.00 0.00 0.00 25 1020.1
20260503182218 71 135 3.0 6.0 0.00 0.00 0.00 24 1020.2
20260503181238 70 180 1.0 2.0 0.00 0.00 0.00 25 1019.9
20260503180218 70 135 2.0 6.0 0.00 0.00 0.00 24 1020.1
20260503175217 70 180 3.0 5.0 0.00 0.00 0.00 23 1020.2
20260503174217 69 293 1.0 4.0 0.00 0.00 0.00 25 1020.2
20260503173218 68 203 12.0 19.0 0.00 0.00 0.00 25 1019.8
20260503172239 68 180 3.0 4.0 0.00 0.00 0.00 27 1020.3
20260503171218 69 180 4.0 9.0 0.00 0.00 0.00 24 1020.6
20260503170218 68 203 4.0 6.0 0.00 0.00 0.00 28 1020.3
20260503160217 63 203 2.0 5.0 0.00 0.00 0.00 34 1020.2
20260503150238 58 180 7.0 9.0 0.00 0.00 0.00 38 1020.0
20260503140217 52 203 3.0 5.0 0.00 0.00 0.00 47 1020.8
20260503131238 41 225 2.0 6.0 0.00 0.00 0.00 59 1018.5
20260503130238 40 0.0 0.0 0.00 0.00 0.00 58 1018.4
20260503120218 41 0.0 0.0 0.00 0.00 0.00 57 1018.8
20260503110217 42 0.0 0.0 0.00 0.00 0.00 52 1018.7
20260503100219 47 0.0 0.0 0.00 0.00 0.00 44 1021.1
20260503090219 53 203 1.0 3.0 0.00 0.00 0.00 36 1021.7
20260503081218 54 248 1.0 3.0 0.00 0.00 0.00 35 1022.3
20260503080219 54 0.0 0.0 0.00 0.00 0.00 35 1022.5
20260503072219 56 203 4.0 4.0 0.00 0.00 0.00 34 1023.3
20260503071219 56 203 2.0 3.0 0.00 0.00 0.00 34 1023.0
20260503070345 55 203 4.0 6.0 0.00 0.00 0.00 35 1023.1
20260503060218 53 0.0 0.0 0.00 0.00 0.00 33 1022.0
20260503054217 53 0.0 0.0 0.00 0.00 0.00 31 1022.0
20260503053218 53 0.0 0.0 0.00 0.00 0.00 30 1021.5
20260503052218 53 0.0 0.0 0.00 0.00 0.00 29 1021.4
20260503051218 53 0.0 0.0 0.00 0.00 0.00 30 1021.4
20260503050238 53 0.0 0.0 0.00 0.00 0.00 29 1020.9
20260503045218 53 0.0 0.0 0.00 0.00 0.00 29 1020.9
20260503044217 53 0.0 0.0 0.00 0.00 0.00 29 1020.8
20260503043218 53 0.0 0.0 0.00 0.00 0.00 29 1020.6
20260503042218 53 0.0 0.0 0.00 0.00 0.00 29 1020.6
20260503041218 53 0.0 0.0 0.00 0.00 0.00 30 1020.5
20260503040238 53 0.0 0.0 0.00 0.00 0.00 30 1019.6
20260503035217 53 0.0 0.0 0.00 0.00 0.00 30 1019.6
20260503034218 53 0.0 0.0 0.00 0.00 0.00 30 1019.4
20260503033238 53 0.0 0.0 0.00 0.00 0.00 29 1018.6
20260503032218 53 0.0 0.0 0.00 0.00 0.00 29 1018.4
20260503031217 54 0.0 0.0 0.00 0.00 0.00 29 1018.2
20260503030218 54 0.0 0.0 0.00 0.00 0.00 28 1016.9
20260503025238 55 0.0 0.0 0.00 0.00 0.00 27 1016.6
20260503024217 56 0.0 0.0 0.00 0.00 0.00 26 1017.0
20260503023217 57 0.0 0.0 0.00 0.00 0.00 25 1016.0
20260503022238 59 0.0 0.0 0.00 0.00 0.00 24 1016.5
20260503021217 60 0.0 0.0 0.00 0.00 0.00 23 1016.4
20260503020217 61 0.0 0.0 0.00 0.00 0.00 22 1015.5
20260503015218 62 0.0 0.0 0.00 0.00 0.00 20 1015.9
20260503014217 63 0.0 0.0 0.00 0.00 0.00 20 1016.0
20260503013217 64 0.0 0.0 0.00 0.00 0.00 19 1015.9
20260503012238 64 0.0 0.0 0.00 0.00 0.00 19 1015.9
20260503011217 65 0.0 0.0 0.00 0.00 0.00 18 1016.5
20260503010217 66 0.0 0.0 0.00 0.00 0.00 18 1016.5
20260503005218 67 90 1.0 3.0 0.00 0.00 0.00 18 1016.9
20260503004217 67 90 1.0 2.0 0.00 0.00 0.00 18 1016.8
20260503003217 67 90 1.0 2.0 0.00 0.00 0.00 18 1016.8
20260503002238 66 68 1.0 4.0 0.00 0.00 0.00 19 1016.5
20260503001217 66 90 1.0 2.0 0.00 0.00 0.00 19 1016.4
20260503000218 67 45 2.0 4.0 0.00 0.00 0.00 18 1016.9
20260502235217 67 90 2.0 3.0 0.00 0.00 0.00 17 1016.9
20260502234218 68 68 3.0 4.0 0.00 0.00 0.00 18 1016.9
20260502233217 68 45 2.0 2.0 0.00 0.00 0.00 18 1017.8
20260502232217 67 113 2.0 3.0 0.00 0.00 0.00 18 1018.0
20260502231216 67 135 1.0 2.0 0.00 0.00 0.00 18 1018.1
20260502230218 67 68 2.0 5.0 0.00 0.00 0.00 18 1018.9
20260502225238 67 315 2.0 3.0 0.00 0.00 0.00 18 1019.0
20260502224217 68 180 1.0 3.0 0.00 0.00 0.00 17 1019.1
20260502223238 68 23 3.0 4.0 0.00 0.00 0.00 18 1019.7
20260502222218 69 113 2.0 3.0 0.00 0.00 0.00 18 1020.4
20260502221218 71 315 4.0 5.0 0.00 0.00 0.00 17 1021.1
20260502220217 71 90 1.0 2.0 0.00 0.00 0.00 17 1020.9
20260502215238 70 180 3.0 5.0 0.00 0.00 0.00 17 1021.0
20260502214217 69 338 1.0 2.0 0.00 0.00 0.00 18 1020.9
20260502213218 68 0 2.0 4.0 0.00 0.00 0.00 19 1020.7
20260502212217 69 180 1.0 4.0 0.00 0.00 0.00 18 1021.0
20260502211217 67 90 3.0 4.0 0.00 0.00 0.00 19 1021.1
20260502210217 68 45 3.0 4.0 0.00 0.00 0.00 18 1022.1
20260502205218 68 90 2.0 6.0 0.00 0.00 0.00 19 1022.2
20260502204218 67 45 5.0 10.0 0.00 0.00 0.00 19 1021.9
20260502203218 68 23 2.0 3.0 0.00 0.00 0.00 17 1022.4
20260502202217 67 113 3.0 4.0 0.00 0.00 0.00 20 1022.2
20260502201217 66 90 3.0 5.0 0.00 0.00 0.00 20 1022.2